Time,TemperatureF,DewpointF,PressureIn,WindDirection,WindDirectionDegrees,WindSpeedMPH,WindSpeedGustMPH,Humidity,HourlyPrecipIn,Conditions,Clouds,dailyrainin,SolarRadiationWatts/m^2,SoftwareType,DateUTC
2013-02-27 00:01:00,71.0,62.0,-100.00,North,7,12.0,23.0,74,0.00,,,0.03,1.000000,,2013-02-27 10:01:00,
2013-02-27 00:12:00,71.0,62.0,-100.00,North,7,12.0,23.0,74,0.00,,,0.03,1.000000,,2013-02-27 10:12:00,
2013-02-27 00:21:00,71.0,62.0,-100.00,North,7,12.0,23.0,74,0.00,,,0.03,1.000000,,2013-02-27 10:21:00,
2013-02-27 00:31:00,71.0,62.0,-100.00,North,7,12.0,23.0,74,0.00,,,0.03,1.000000,,2013-02-27 10:31:00,
2013-02-27 01:01:00,71.0,62.0,-100.00,North,8,10.0,25.0,72,0.00,,,0.03,0.000000,,2013-02-27 11:01:00,
2013-02-27 01:12:00,71.0,62.0,-100.00,North,8,10.0,25.0,72,0.00,,,0.03,0.000000,,2013-02-27 11:12:00,
2013-02-27 01:22:00,71.0,62.0,-100.00,North,8,10.0,25.0,72,0.00,,,0.03,0.000000,,2013-02-27 11:22:00,
2013-02-27 01:31:00,71.0,62.0,-100.00,North,8,10.0,25.0,72,0.00,,,0.03,0.000000,,2013-02-27 11:31:00,
2013-02-27 01:52:00,71.0,59.0,-100.00,North,10,10.0,22.0,65,0.00,,,0.03,1.000000,,2013-02-27 11:52:00,
2013-02-27 02:02:00,71.0,59.0,-100.00,North,10,10.0,22.0,65,0.00,,,0.03,1.000000,,2013-02-27 12:02:00,
2013-02-27 02:12:00,71.0,59.0,-100.00,North,10,10.0,22.0,65,0.00,,,0.03,1.000000,,2013-02-27 12:12:00,
2013-02-27 02:22:00,71.0,59.0,-100.00,North,10,10.0,22.0,65,0.00,,,0.03,1.000000,,2013-02-27 12:22:00,
2013-02-27 02:32:00,71.0,59.0,-100.00,North,10,10.0,22.0,65,0.00,,,0.03,1.000000,,2013-02-27 12:32:00,
2013-02-27 03:02:00,71.0,59.0,-100.00,North,7,10.0,24.0,65,0.00,,,0.03,1.000000,,2013-02-27 13:02:00,
2013-02-27 03:11:00,71.0,59.0,-100.00,North,7,10.0,24.0,65,0.00,,,0.03,1.000000,,2013-02-27 13:11:00,
2013-02-27 03:21:00,71.0,59.0,-100.00,North,7,10.0,24.0,65,0.00,,,0.03,1.000000,,2013-02-27 13:21:00,
2013-02-27 03:31:00,71.0,59.0,-100.00,North,7,10.0,24.0,65,0.00,,,0.03,1.000000,,2013-02-27 13:31:00,
2013-02-27 04:02:00,70.0,56.0,-100.00,North,11,9.0,18.0,62,0.00,,,0.03,1.000000,,2013-02-27 14:02:00,
2013-02-27 04:11:00,70.0,56.0,-100.00,North,11,9.0,18.0,62,0.00,,,0.03,1.000000,,2013-02-27 14:11:00,
2013-02-27 04:21:00,70.0,56.0,-100.00,North,11,9.0,18.0,62,0.00,,,0.03,1.000000,,2013-02-27 14:21:00,
2013-02-27 04:31:00,70.0,56.0,-100.00,North,11,9.0,18.0,62,0.00,,,0.03,1.000000,,2013-02-27 14:31:00,
2013-02-27 05:02:00,72.0,58.0,-100.00,North,10,9.0,22.0,62,0.00,,,0.03,1.000000,,2013-02-27 15:02:00,
2013-02-27 05:12:00,72.0,58.0,-100.00,North,10,9.0,22.0,62,0.00,,,0.03,1.000000,,2013-02-27 15:12:00,
2013-02-27 05:22:00,72.0,58.0,-100.00,North,10,9.0,22.0,62,0.00,,,0.03,1.000000,,2013-02-27 15:22:00,
2013-02-27 05:32:00,72.0,58.0,-100.00,North,10,9.0,22.0,62,0.00,,,0.03,1.000000,,2013-02-27 15:32:00,
2013-02-27 06:01:00,71.0,60.0,-100.00,North,11,9.0,19.0,68,0.00,,,0.03,1.000000,,2013-02-27 16:01:00,
2013-02-27 06:11:00,71.0,60.0,-100.00,North,11,9.0,19.0,68,0.00,,,0.03,1.000000,,2013-02-27 16:11:00,
2013-02-27 06:21:00,71.0,60.0,-100.00,North,11,9.0,19.0,68,0.00,,,0.03,1.000000,,2013-02-27 16:21:00,
2013-02-27 06:32:00,71.0,60.0,-100.00,North,11,9.0,19.0,68,0.00,,,0.03,1.000000,,2013-02-27 16:32:00,
2013-02-27 07:01:00,71.0,59.0,-100.00,North,8,9.0,19.0,66,0.00,,,0.03,1.000000,,2013-02-27 17:01:00,
2013-02-27 07:11:00,71.0,59.0,-100.00,North,8,9.0,19.0,66,0.00,,,0.03,1.000000,,2013-02-27 17:11:00,
2013-02-27 07:21:00,71.0,59.0,-100.00,North,8,9.0,19.0,66,0.00,,,0.03,1.000000,,2013-02-27 17:21:00,
2013-02-27 07:32:00,71.0,59.0,-100.00,North,8,9.0,19.0,66,0.00,,,0.03,1.000000,,2013-02-27 17:32:00,
2013-02-27 08:01:00,70.0,57.0,-100.00,NNE,14,9.0,20.0,63,0.00,,,0.01,31.000000,,2013-02-27 18:01:00,
2013-02-27 08:11:00,70.0,57.0,-100.00,NNE,14,9.0,20.0,63,0.00,,,0.01,31.000000,,2013-02-27 18:11:00,
2013-02-27 08:22:00,70.0,57.0,-100.00,NNE,14,9.0,20.0,63,0.00,,,0.01,31.000000,,2013-02-27 18:22:00,
2013-02-27 08:31:00,70.0,57.0,-100.00,NNE,14,9.0,20.0,63,0.00,,,0.01,31.000000,,2013-02-27 18:31:00,
2013-02-27 09:01:00,74.0,55.0,-100.00,NNE,31,11.0,22.0,51,0.00,,,0.01,252.000000,,2013-02-27 19:01:00,
2013-02-27 09:11:00,74.0,55.0,-100.00,NNE,31,11.0,22.0,51,0.00,,,0.01,252.000000,,2013-02-27 19:11:00,
2013-02-27 09:21:00,74.0,55.0,-100.00,NNE,31,11.0,22.0,51,0.00,,,0.01,252.000000,,2013-02-27 19:21:00,
2013-02-27 09:32:00,74.0,55.0,-100.00,NNE,31,11.0,22.0,51,0.00,,,0.01,252.000000,,2013-02-27 19:32:00,
2013-02-27 10:01:00,78.0,54.0,-100.00,NNE,21,14.0,24.0,43,0.00,,,0.01,501.000000,,2013-02-27 20:01:00,
2013-02-27 10:11:00,78.0,54.0,-100.00,NNE,21,14.0,24.0,43,0.00,,,0.01,501.000000,,2013-02-27 20:11:00,
2013-02-27 10:21:00,78.0,54.0,-100.00,NNE,21,14.0,24.0,43,0.00,,,0.01,501.000000,,2013-02-27 20:21:00,
2013-02-27 10:31:00,78.0,54.0,-100.00,NNE,21,14.0,24.0,43,0.00,,,0.01,501.000000,,2013-02-27 20:31:00,
2013-02-27 11:01:00,81.0,47.0,-100.00,NNE,19,17.0,33.0,30,0.00,,,-99.99,722.000000,,2013-02-27 21:01:00,
2013-02-27 11:11:00,81.0,47.0,-100.00,NNE,19,17.0,33.0,30,0.00,,,-99.99,722.000000,,2013-02-27 21:11:00,
2013-02-27 11:21:00,81.0,47.0,-100.00,NNE,19,17.0,33.0,30,0.00,,,-99.99,722.000000,,2013-02-27 21:21:00,
2013-02-27 11:31:00,81.0,47.0,-100.00,NNE,19,17.0,33.0,30,0.00,,,-99.99,722.000000,,2013-02-27 21:31:00,
2013-02-27 12:01:00,85.0,58.0,-100.00,NNE,25,15.0,29.0,40,0.00,,,0.01,842.000000,,2013-02-27 22:01:00,
2013-02-27 12:11:00,85.0,58.0,-100.00,NNE,25,15.0,29.0,40,0.00,,,0.01,842.000000,,2013-02-27 22:11:00,
2013-02-27 12:21:00,85.0,58.0,-100.00,NNE,25,15.0,29.0,40,0.00,,,0.01,842.000000,,2013-02-27 22:21:00,
2013-02-27 12:31:00,85.0,58.0,-100.00,NNE,25,15.0,29.0,40,0.00,,,0.01,842.000000,,2013-02-27 22:31:00,
2013-02-27 13:01:00,87.0,50.0,-100.00,NNE,22,12.0,25.0,28,0.00,,,-99.99,905.000000,,2013-02-27 23:01:00,
2013-02-27 13:11:00,87.0,50.0,-100.00,NNE,22,12.0,25.0,28,0.00,,,-99.99,905.000000,,2013-02-27 23:11:00,
2013-02-27 13:21:00,87.0,50.0,-100.00,NNE,22,12.0,25.0,28,0.00,,,-99.99,905.000000,,2013-02-27 23:21:00,
2013-02-27 13:31:00,87.0,50.0,-100.00,NNE,22,12.0,25.0,28,0.00,,,-99.99,905.000000,,2013-02-27 23:31:00,
2013-02-27 14:01:00,85.0,50.0,-100.00,NNE,27,14.0,29.0,30,0.00,,,-99.99,968.000000,,2013-02-28 00:01:00,
2013-02-27 14:11:00,85.0,50.0,-100.00,NNE,27,14.0,29.0,30,0.00,,,-99.99,968.000000,,2013-02-28 00:11:00,
2013-02-27 14:21:00,85.0,50.0,-100.00,NNE,27,14.0,29.0,30,0.00,,,-99.99,968.000000,,2013-02-28 00:21:00,
2013-02-27 14:31:00,85.0,50.0,-100.00,NNE,27,14.0,29.0,30,0.00,,,-99.99,968.000000,,2013-02-28 00:31:00,
2013-02-27 15:01:00,83.0,55.0,-100.00,NNE,15,10.0,23.0,38,0.00,,,0.01,827.000000,,2013-02-28 01:01:00,
2013-02-27 15:11:00,83.0,55.0,-100.00,NNE,15,10.0,23.0,38,0.00,,,0.01,827.000000,,2013-02-28 01:11:00,
2013-02-27 15:21:00,83.0,55.0,-100.00,NNE,15,10.0,23.0,38,0.00,,,0.01,827.000000,,2013-02-28 01:21:00,
2013-02-27 15:31:00,83.0,55.0,-100.00,NNE,15,10.0,23.0,38,0.00,,,0.01,827.000000,,2013-02-28 01:31:00,
2013-02-27 16:01:00,82.0,53.0,-100.00,NNE,12,8.0,22.0,37,0.00,,,0.01,642.000000,,2013-02-28 02:01:00,
2013-02-27 16:11:00,82.0,53.0,-100.00,NNE,12,8.0,22.0,37,0.00,,,0.01,642.000000,,2013-02-28 02:11:00,
2013-02-27 16:22:00,82.0,53.0,-100.00,NNE,12,8.0,22.0,37,0.00,,,0.01,642.000000,,2013-02-28 02:22:00,
2013-02-27 16:31:00,82.0,53.0,-100.00,NNE,12,8.0,22.0,37,0.00,,,0.01,642.000000,,2013-02-28 02:31:00,
2013-02-27 17:01:00,79.0,54.0,-100.00,North,10,9.0,24.0,42,0.00,,,0.01,501.000000,,2013-02-28 03:01:00,
2013-02-27 17:11:00,79.0,54.0,-100.00,North,10,9.0,24.0,42,0.00,,,0.01,501.000000,,2013-02-28 03:11:00,
2013-02-27 17:21:00,79.0,54.0,-100.00,North,10,9.0,24.0,42,0.00,,,0.01,501.000000,,2013-02-28 03:21:00,
2013-02-27 17:31:00,79.0,54.0,-100.00,North,10,9.0,24.0,42,0.00,,,0.01,501.000000,,2013-02-28 03:31:00,
2013-02-27 18:01:00,77.0,55.0,-100.00,NNE,15,10.0,25.0,47,0.00,,,0.01,350.000000,,2013-02-28 04:01:00,
2013-02-27 18:11:00,77.0,55.0,-100.00,NNE,15,10.0,25.0,47,0.00,,,0.01,350.000000,,2013-02-28 04:11:00,
2013-02-27 18:21:00,77.0,55.0,-100.00,NNE,15,10.0,25.0,47,0.00,,,0.01,350.000000,,2013-02-28 04:21:00,
2013-02-27 18:31:00,77.0,55.0,-100.00,NNE,15,10.0,25.0,47,0.00,,,0.01,350.000000,,2013-02-28 04:31:00,
2013-02-27 19:01:00,74.0,58.0,-100.00,North,9,9.0,21.0,57,0.00,,,0.01,44.000000,,2013-02-28 05:01:00,
2013-02-27 19:11:00,74.0,58.0,-100.00,North,9,9.0,21.0,57,0.00,,,0.01,44.000000,,2013-02-28 05:11:00,
2013-02-27 19:22:00,74.0,58.0,-100.00,North,9,9.0,21.0,57,0.00,,,0.01,44.000000,,2013-02-28 05:22:00,
2013-02-27 19:31:00,74.0,58.0,-100.00,North,9,9.0,21.0,57,0.00,,,0.01,44.000000,,2013-02-28 05:31:00,
2013-02-27 20:01:00,74.0,60.0,-100.00,North,11,8.0,20.0,62,0.00,,,0.01,1.000000,,2013-02-28 06:01:00,
2013-02-27 20:11:00,74.0,60.0,-100.00,North,11,8.0,20.0,62,0.00,,,0.01,1.000000,,2013-02-28 06:11:00,
2013-02-27 20:22:00,74.0,60.0,-100.00,North,11,8.0,20.0,62,0.00,,,0.01,1.000000,,2013-02-28 06:22:00,
2013-02-27 20:32:00,74.0,60.0,-100.00,North,11,8.0,20.0,62,0.00,,,0.01,1.000000,,2013-02-28 06:32:00,
2013-02-27 21:01:00,72.0,58.0,-100.00,North,9,8.0,20.0,61,0.00,,,0.01,0.000000,,2013-02-28 07:01:00,
2013-02-27 21:11:00,72.0,58.0,-100.00,North,9,8.0,20.0,61,0.00,,,0.01,0.000000,,2013-02-28 07:11:00,
2013-02-27 21:21:00,72.0,58.0,-100.00,North,9,8.0,20.0,61,0.00,,,0.01,0.000000,,2013-02-28 07:21:00,
2013-02-27 21:31:00,72.0,58.0,-100.00,North,9,8.0,20.0,61,0.00,,,0.01,0.000000,,2013-02-28 07:31:00,
2013-02-27 22:01:00,72.0,57.0,-100.00,NNE,23,7.0,22.0,60,0.00,,,0.01,1.000000,,2013-02-28 08:01:00,
2013-02-27 22:11:00,72.0,57.0,-100.00,NNE,23,7.0,22.0,60,0.00,,,0.01,1.000000,,2013-02-28 08:11:00,
2013-02-27 22:21:00,72.0,57.0,-100.00,NNE,23,7.0,22.0,60,0.00,,,0.01,1.000000,,2013-02-28 08:21:00,
2013-02-27 22:31:00,72.0,57.0,-100.00,NNE,23,7.0,22.0,60,0.00,,,0.01,1.000000,,2013-02-28 08:31:00,
2013-02-27 22:53:00,72.0,58.0,-100.00,North,9,9.0,21.0,61,0.00,,,0.00,1.000000,,2013-02-28 08:53:00,
2013-02-27 23:03:00,72.0,58.0,-100.00,North,9,9.0,21.0,61,0.00,,,0.00,1.000000,,2013-02-28 09:03:00,
2013-02-27 23:11:00,72.0,58.0,-100.00,North,9,9.0,21.0,61,0.00,,,0.00,1.000000,,2013-02-28 09:11:00,
2013-02-27 23:21:00,72.0,58.0,-100.00,North,9,9.0,21.0,61,0.00,,,0.00,1.000000,,2013-02-28 09:21:00,
2013-02-27 23:31:00,72.0,58.0,-100.00,North,9,9.0,21.0,61,0.00,,,0.00,1.000000,,2013-02-28 09:31:00,